Volver al catálogo

ONEWEB-0599

ActivoComunicacionesPO
NORAD 55155·PAYLOAD·🇬🇧 United Kingdom

Lanzado Jan 10, 2023 desde Cape Canaveral Space Force Station

Loading…

Próximos Pases (próximas 24 horas)

TLE

ActualizadoSource: CelesTrak SupGP

Época: Sep 14, 2026, 22:57 UTC

1 55155C 23004R   26257.95640463 -.00000381  00000+0 -98335-3 0  2570
2 55155  87.9206 348.0370 0001891  94.8833  14.6288 13.17651417    10

Sigue ONEWEB-0599 en tiempo real con AllMySat

Download on the App Store